Location: Luz Observatory
(34.5000°N, 117.2833°W)
Time: 15:11:56
(UTC-07:00)

Daily predictions for brighter satellites

Satellite Brightness Start Highest point End
(mag) Time Altitude Azimuth Time Altitude Azimuth Time Altitude Azimuth
CZ-4 DEB 3.1 20:19:22 10° SSE 20:22:28 48° ENE 20:25:36 10° N
ERS-1 Rocket 3.8 20:18:38 10° SE 20:23:04 33° ENE 20:27:31 10° N
deb Chang Zheng 4 4.4 20:19:56 10° NE 20:23:50 31° E 20:27:42 10° SSE
Cosmos 2228 3.5 20:19:53 10° N 20:24:07 44° E 20:28:18 10° SSE
BREEZE-M DEB (TANK) 3.2 20:15:48 10° SW 20:24:17 89° SSE 20:27:04 10° NE
Cosmos 1626 Rocket 4.1 20:20:24 10° SSE 20:24:30 38° E 20:28:35 10° NNE
CZ-4B DEB 4.4 20:21:25 10° SSW 20:24:32 37° W 20:27:42 10° NNW
Cosmos 2285 Rocket 4.1 20:21:03 10° NNW 20:27:25 85° ENE 20:33:47 10° SSE
Cosmos 1464 Rocket 4.0 20:23:30 10° N 20:29:37 64° E 20:35:45 10° SSE
Cosmos 1603 3.7 20:26:01 10° SSW 20:31:37 82° ESE 20:37:15 10° NNE
FENGYUN 3A 3.7 20:26:53 10° SSE 20:32:13 74° ENE 20:37:37 10° N
Meteor 1-15 Rocket 4.3 20:29:27 10° N 20:35:02 66° E 20:40:42 10° SSE
Atlas Centaur 2 2.9 20:30:11 10° WSW 20:36:44 62° S 20:44:41 10° E
Envisat 4.3 20:34:37 10° ESE 20:38:40 25° ENE 20:42:43 10° NNE
Meteor 2-9 Rocket 4.3 20:33:22 10° N 20:39:08 77° E 20:44:59 10° SSE
Cosmos 1461 2.9 20:41:12 10° NNW 20:45:26 86° WSW 20:49:18 11° SSE
SJ-11-01 4.5 20:45:52 10° SSE 20:50:24 55° ENE 20:54:58 10° N
Cosmos 2034 Rocket 4.0 20:44:40 10° N 20:51:01 72° E 20:57:17 10° SSE
APEX 4.4 20:47:00 10° NNW 20:51:32 64° WSW 20:57:25 10° S
Cosmos 1943 3.5 20:46:32 10° S 20:51:55 47° ESE 20:57:21 10° NNE
Cosmos 1939 Rocket 3.7 20:49:40 14° SE 20:52:52 36° ENE 20:56:42 10° N
H-2A R/B 3.4 20:51:05 10° S 20:54:57 56° W 20:58:52 10° NNW
Cosmos 1346 Rocket 4.1 21:02:36 19° ESE 21:03:47 22° E 21:06:51 10° NE
Cosmos 1992 Rocket 4.3 21:09:52 10° N 21:14:57 51° ENE 21:18:00 23° SE
Delta 168 4.2 21:13:41 10° SW 21:16:02 18° S 21:16:16 18° S
SeaSat 1 3.5 21:15:27 19° ESE 21:18:05 31° ENE 21:22:22 10° N
ISS 0.0 21:18:16 10° WNW 21:20:11 14° NNW 21:22:05 10° N
ARGOS 4.5 21:18:20 18° ESE 21:20:41 24° ENE 21:24:57 10° NNE
USA 186 4.4 21:19:37 10° SW 21:21:05 13° W 21:22:30 10° WNW
ALOS 4.1 21:19:12 10° SSW 21:23:11 28° W 21:27:11 10° NW
COSMOS 2455 3.9 21:17:46 10° SW 21:23:32 48° WNW 21:29:22 10° NNE
USA 81 4.4 21:20:30 10° N 21:25:35 47° E 21:28:10 26° SE
MetOp-B 4.4 21:26:41 26° SE 21:29:29 51° ENE 21:34:39 10° N
Centaur D AC-28 3.2 21:27:34 10° WSW 21:30:24 20° SSW 21:31:03 19° S
CZ-2C R/B 3.4 21:32:58 10° SW 21:34:15 14° W 21:35:32 10° WNW
Cosmos 1825 Rocket 3.5 21:31:36 20° S 21:34:36 79° E 21:39:03 10° N
CZ-4B R/B 3.5 21:31:27 10° NNE 21:36:34 62° ESE 21:39:52 22° S
Cosmos 1190 Rocket 4.0 21:31:55 10° SSW 21:37:13 85° WNW 21:42:34 10° NNE
Cosmos 2369 Rocket 2.3 21:32:53 10° NNW 21:38:31 63° ENE 21:41:03 32° SE
YAOGAN 6 3.1 21:40:59 41° E 21:41:26 43° ENE 21:45:00 10° N
H-2A R/B 3.6 21:45:29 18° E 21:46:25 19° ENE 21:49:50 10° NNE
CZ-4 SHROUD 3.7 21:46:21 44° SSW 21:47:00 55° W 21:50:06 10° NNW
CZ-4 R/B 4.1 21:42:07 10° NNE 21:47:00 52° E 21:48:33 38° SSE
Cosmos 1140 Rocket 4.3 21:47:15 30° E 21:47:17 31° E 21:51:50 10° NE
SPOT 5 2.8 21:50:53 32° S 21:52:46 65° WSW 21:57:04 10° NNW
PSLV R/B 3.9 21:52:30 43° SW 21:52:55 46° W 21:55:57 10° NNW
H-2A R/B 3.8 21:50:39 13° SSW 21:53:49 28° W 21:57:35 10° NW
ATLAS 3B R/B 3.4 21:46:15 10° SW 21:53:53 66° WNW 22:01:26 10° NNE
Terra 3.5 21:53:35 19° ENE 21:54:02 19° ENE 21:57:21 10° NNE
Lacrosse 4 Rocket 2.5 21:50:38 10° SW 21:54:28 42° WNW 21:58:21 10° N
Cosmos 676 Rocket 3.9 21:50:52 21° S 21:54:32 81° ESE 21:59:53 10° NNE
SPOT 1/Viking Rocket 3.6 21:53:34 41° SE 21:55:14 64° ENE 22:00:20 10° N
DEBRIS 3.4 21:56:00 10° WNW 21:58:28 31° WSW 21:58:28 31° WSW
Cosmos 2263 4.1 22:06:18 10° NNW 22:11:57 87° ENE 22:13:26 52° SSE
USA 234 3.9 22:09:10 26° E 22:12:28 45° NE 22:18:39 10° NNW
CZ-4C R/B 3.8 22:14:31 51° ENE 22:14:31 51° ENE 22:18:12 10° N
USA 245 4.2 22:13:44 43° S 22:15:44 79° WSW 22:20:50 10° NNW
COSMOS 2406 3.2 22:15:41 53° SSE 22:16:38 61° ESE 22:22:17 10° NNE
Envisat 4.4 22:14:39 19° SSW 22:17:28 32° W 22:22:00 10° NW
SL-27 R/B 3.6 22:18:58 36° N 22:18:58 36° N 22:21:04 10° NNE
Nadezhda 4 Rocket 4.3 22:19:24 45° ESE 22:20:16 48° E 22:26:18 10° NNE
Atlas Centaur 2 3.0 22:18:59 10° W 22:26:20 60° S 22:28:40 46° SE
DMSP B5D2-2 4.4 22:21:35 10° NNE 22:26:18 48° E 22:26:18 48° E
Cosmos-2242 3.2 22:24:32 10° N 22:28:28 62° NE 22:28:28 62° NE
Cosmos 1943 Rocket 2.1 22:25:51 10° NNW 22:31:24 67° ENE 22:31:58 63° ESE
Cosmos 1953 3.2 22:29:12 10° N 22:32:04 42° NNE 22:32:04 42° NNE
SL-08 RB Rocket 3.7 22:35:39 72° WSW 22:35:40 72° W 22:40:12 10° NNW
USA 238 DEB 3.9 22:32:06 10° SW 22:39:11 73° WNW 22:46:16 10° NNE
USA 238 3.9 22:32:12 10° SW 22:39:17 74° WNW 22:46:22 10° NNE
Spot 2 4.4 22:38:15 10° NNE 22:42:49 71° ENE 22:42:49 71° ENE
Cosmos 1842 4.4 22:46:00 39° WNW 22:46:00 39° WNW 22:49:26 10° N
Cosmos 1607 3.9 22:45:38 40° SW 22:48:04 81° WNW 22:54:20 10° NNE
Cosmos 2279 Rocket 4.5 22:47:15 10° NNW 22:53:18 54° W 22:54:57 43° SW
SeaSat 1 3.7 22:55:15 29° WSW 22:55:30 29° WSW 22:59:47 10° NW
Cosmos 2208 Rocket 4.1 22:51:50 10° NNW 22:56:31 65° NE 22:56:31 65° NE
CARTOSAT-1 4.3 22:59:20 52° NNW 22:59:20 52° NNW 23:02:39 10° NNW
CZ-4C R/B 3.1 23:02:16 37° ENE 23:02:16 37° ENE 23:05:54 10° NE
ARGOS 4.1 22:59:51 35° WSW 23:00:39 37° W 23:05:40 10° NNW
Cosmos 1741 Rocket 4.3 23:06:01 59° W 23:06:19 60° WNW 23:11:36 10° N
NOSS 3-2 (C) 3.8 23:14:45 53° ENE 23:14:45 53° ENE 23:19:54 10° NE
Cosmos 2369 Rocket 4.4 23:19:04 10° WNW 23:21:52 14° W 23:22:51 13° WSW
H-2A R/B 2.9 23:26:07 40° WNW 23:26:07 40° WNW 23:30:14 10° NNW
Meteor 2-5 Rocket 3.9 23:31:04 72° NNW 23:31:04 72° NNW 23:36:23 10° N
Terra 3.2 23:32:28 33° WNW 23:32:28 33° WNW 23:35:51 10° NNW
Lacrosse 5 4.5 23:50:12 10° N 23:52:45 14° NNE 23:55:03 11° ENE
Cosmos 1553 Rocket 4.5 23:46:34 10° N 23:52:07 53° ENE 23:52:07 53° ENE
